# From MPO110568 1 Ceres,e,10.5867,80.4070,73.1507,2.765956,0.2142575,0.07976016,215.8010,04/10.0/2007,2000,H 3.34,0.12 # From MPC 24084 2 Pallas,e,34.8418,173.1358,310.3448,2.771668,0.2135955,0.23075889,199.7262,04/10.0/2007,2000,H 4.13,0.11 # From MPC 24084 3 Juno,e,12.9704,170.1201,247.8419,2.667884,0.2261797,0.25802311,121.2242,04/10.0/2007,2000,H 5.33,0.32 # From MPC 24219 4 Vesta,e,7.1338,103.9184,150.1800,2.361956,0.2715165,0.08936572,341.5921,04/10.0/2007,2000,H 3.20,0.32 # From MPO 25662 8 Flora,e,5.8890,110.9632,285.4762,2.201090,0.3018196,0.15628428,306.8927,04/10.0/2007,2000,H 6.49,0.28 # From MPO 25662 9 Metis,e,5.5762,68.9730,5.9445,2.387825,0.2671163,0.12135326,180.9706,04/10.0/2007,2000,H 6.28,0.17 # From MPC 35055 10 Hygiea,e,3.8423,283.4564,313.0346,3.136719,0.1774151,0.11790477,91.7148,04/10.0/2007,2000,H 5.43,0.15 # From MPC 24085 11 Parthenope,e,4.6248,125.6283,195.2590,2.452121,0.2566796,0.10019111,230.3556,04/10.0/2007,2000,H 6.55,0.15 # From MPO 57621 12 Victoria,e,8.3638,235.5373,69.5799,2.334115,0.2763889,0.22030218,357.1633,04/10.0/2007,2000,H 7.24,0.22 # From MPO 2601 13 Egeria,e,16.5444,43.2886,81.0571,2.575436,0.2384668,0.08591861,218.4678,04/10.0/2007,2000,H 6.74,0.15 # From MPO 595 14 Irene,e,9.1073,86.4586,96.3374,2.585353,0.2370961,0.16795527,203.7770,04/10.0/2007,2000,H 6.30,0.15 # From MPC 35055 16 Psyche,e,3.0959,150.3444,227.8048,2.919356,0.1975938,0.13953524,141.3676,04/10.0/2007,2000,H 5.90,0.20 # From MPC 38747 17 Thetis,e,5.5875,125.6082,136.0488,2.469752,0.2539358,0.13450525,266.7517,04/10.0/2007,2000,H 7.76,0.15 # From MPO 53552 18 Melpomene,e,10.1259,150.5316,227.9731,2.295285,0.2834322,0.21872614,100.3356,04/10.0/2007,2000,H 6.51,0.25 # From MPO 53552 19 Fortuna,e,1.5735,211.3693,181.9313,2.441329,0.2583834,0.15927025,141.0666,04/10.0/2007,2000,H 7.13,0.10 # From MPO 25662 20 Massalia,e,0.7069,206.5072,255.4922,2.408839,0.2636285,0.14276806,38.9840,04/10.0/2007,2000,H 6.50,0.25 # From MPO 2601 21 Lutetia,e,3.0645,80.9130,249.9729,2.436051,0.2592236,0.16345250,283.1722,04/10.0/2007,2000,H 7.35,0.11 # From MPO 4876 23 Thalia,e,10.1452,67.2272,59.3242,2.627172,0.2314575,0.23288262,38.1104,04/10.0/2007,2000,H 6.95,0.15 # From MPO 4876 27 Euterpe,e,1.5838,94.8053,356.8228,2.346617,0.2741832,0.17246291,208.5600,04/10.0/2007,2000,H 7.0,0.15 # From MPO 50329 28 Bellona,e,9.4010,144.5007,342.6080,2.778259,0.2128360,0.14822958,57.8079,04/10.0/2007,2000,H 7.09,0.15 # From MPO 57621 29 Amphitrite,e,6.0963,356.4990,63.4122,2.554208,0.2414458,0.07265617,302.1354,04/10.0/2007,2000,H 5.85,0.20 # From MPO 62176 30 Urania,e,2.0986,307.7475,86.9591,2.365482,0.2709098,0.12650240,277.4151,04/10.0/2007,2000,H 7.57,0.15 # From MPO 53552 31 Euphrosyne,e,26.3161,31.2363,61.9901,3.149264,0.1763561,0.22577925,32.1430,04/10.0/2007,2000,H 6.74,0.15 # From MPC 27086 32 Pomona,e,5.5298,220.5696,339.4993,2.587300,0.2368285,0.08312826,69.9353,04/10.0/2007,2000,H 7.56,0.15 # From MPC 31001 37 Fides,e,3.0733,7.4079,62.6684,2.641060,0.2296343,0.17657503,52.2933,04/10.0/2007,2000,H 7.29,0.24 # From MPC 31001 40 Harmonia,e,4.2565,94.2855,269.2094,2.267574,0.2886436,0.04629064,277.7446,04/10.0/2007,2000,H 7.0,0.15 # From MPO 77281 43 Ariadne,e,3.4680,264.9350,15.9708,2.203030,0.3014209,0.16806035,252.2350,04/10.0/2007,2000,H 7.93,0.11 # From MPC 31001 51 Nemausa,e,9.9719,176.1672,2.8568,2.365376,0.2709279,0.06641338,343.7258,04/10.0/2007,2000,H 7.35,0.08 # From MPC 24371 52 Europa,e,7.4753,128.7638,343.9587,3.099057,0.1806591,0.10430772,160.5819,04/10.0/2007,2000,H 6.31,0.18 # From MPC 35405 63 Ausonia,e,5.7860,337.9106,295.6363,2.395152,0.2658915,0.12589122,49.9888,04/10.0/2007,2000,H 7.55,0.25 # From MPO 2601 71 Niobe,e,23.2586,316.0822,267.4146,2.755014,0.2155353,0.17653237,35.4658,04/10.0/2007,2000,H 7.30,0.40 # From MPO 77281 78 Diana,e,8.6881,333.5817,151.4243,2.619750,0.2324419,0.20724679,17.0513,04/10.0/2007,2000,H 8.09,0.08 # From MPO 57621 80 Sappho,e,8.6627,218.8145,139.1481,2.296433,0.2832197,0.19995347,291.1756,04/10.0/2007,2000,H 7.98,0.15 # From MPO 31791 85 Io,e,11.9608,203.4322,122.0721,2.654716,0.2278646,0.19222513,298.3543,04/10.0/2007,2000,H 7.61,0.15 # From MPC 30777 89 Julia,e,16.1421,311.6483,44.9747,2.549731,0.2420821,0.18386838,153.3842,04/10.0/2007,2000,H 6.60,0.15 # From MPC 34570 102 Miriam,e,5.1765,210.9294,147.3828,2.662179,0.2269072,0.25136564,332.0311,04/10.0/2007,2000,H 9.26,0.15 # From MPO 2601 115 Thyra,e,11.6019,308.9779,96.8814,2.379645,0.2684947,0.19170664,275.5419,04/10.0/2007,2000,H 7.51,0.12 # From MPO 595 116 Sirona,e,3.5690,64.0354,93.1331,2.769081,0.2138950,0.13743270,1.6565,04/10.0/2007,2000,H 7.82,0.15 # From MPC 22665 144 Vibilia,e,4.8084,76.4865,293.6325,2.654216,0.2279290,0.23560574,85.7608,04/10.0/2007,2000,H 7.91,0.17 # From MPC 27543 185 Eunike,e,23.2233,153.9379,224.2222,2.738764,0.2174564,0.12718386,307.8078,04/10.0/2007,2000,H 7.62,0.15 # From MPC 31001 192 Nausikaa,e,6.8144,343.3336,29.9710,2.404006,0.2644239,0.24577054,274.6669,04/10.0/2007,2000,H 7.13,0.03 # From MPC 26546 194 Prokne,e,18.4845,159.4881,162.8557,2.617740,0.2327097,0.23586885,331.1391,04/10.0/2007,2000,H 7.68,0.15 # From MPO 2601 196 Philomela,e,7.2613,72.5554,199.6537,3.112680,0.1794744,0.02199468,22.5288,04/10.0/2007,2000,H 6.54,0.15 # From MPC 30889 198 Ampella,e,9.3101,268.5288,88.6191,2.458616,0.2556631,0.22779020,341.6870,04/10.0/2007,2000,H 8.33,0.15 # From MPC 31001 230 Athamantis,e,9.4386,239.9605,139.8283,2.382212,0.2680610,0.06087972,284.0654,04/10.0/2007,2000,H 7.35,0.27 # From MPO 35428 270 Anahita,e,2.3657,254.5558,80.2339,2.198705,0.3023109,0.15061005,271.3368,04/10.0/2007,2000,H 8.75,0.15 # From MPC 31001 349 Dembowska,e,8.2566,32.5012,347.4849,2.924843,0.1970381,0.08793032,355.4937,04/10.0/2007,2000,H 5.93,0.37 # From MPC 31001 354 Eleonora,e,18.3870,140.4156,6.9931,2.799195,0.2104526,0.11372202,126.3274,04/10.0/2007,2000,H 6.44,0.37 # From MPC 34570 372 Palma,e,23.8623,327.4578,116.0180,3.144506,0.1767566,0.26253318,35.0194,04/10.0/2007,2000,H 7.2,0.15 # From MPC 31001 471 Papagena,e,14.9854,84.0953,314.4427,2.885683,0.2010626,0.23352263,83.1553,04/10.0/2007,2000,H 6.73,0.37 # From MPC 31002 511 Davida,e,15.9378,107.6696,338.4785,3.166337,0.1749316,0.18567086,282.7598,04/10.0/2007,2000,H 6.22,0.16 # From MPC 34570 516 Amherstia,e,12.9567,328.8864,258.5482,2.679756,0.2246784,0.27359865,341.8666,04/10.0/2007,2000,H 8.27,0.15 # From MPC 31002 532 Herculina,e,16.3144,107.6022,76.7207,2.770128,0.2137737,0.17858311,124.1901,04/10.0/2007,2000,H 5.81,0.26 # From MPO 33740 584 Semiramis,e,10.7277,282.2994,84.8584,2.373589,0.2695231,0.23290481,330.2054,04/10.0/2007,2000,H 8.71,0.24 # From MPC 31002 704 Interamnia,e,17.2913,280.3911,95.7773,3.062058,0.1839433,0.14994061,9.6259,04/10.0/2007,2000,H 5.94,-0.02 # From MPO 62176 980 Anacostia,e,15.8968,285.8963,69.8446,2.742776,0.2169795,0.19980007,299.6429,04/10.0/2007,2000,H 7.85,0.06 # From MPC 35406 1166 Sakuntala,e,18.8917,106.7900,189.1732,2.537032,0.2439019,0.20729152,331.0489,04/10.0/2007,2000,H 8.8,0.15